Race Results for
Cherry- Roubaix Criterium and State Championship R
Traverse City and Cedar -respectively, MI
(Event Information)
Criterium on 08/13/2011

Note: Ranking points are NOT upgrade points. An explanation of ranking points can be found here.


Men - Pro 1/2

 Place Points NameCity, StateTime USAC #BibTeam
1112.48Derek Witte   Grand Rapids, MI18:49:56 41402  37 Bissell Masters
2116.07Paul Martin   North Royalton, OH18:49:57 207549  32 Panther pb Competitive Cyclist
3119.66Benjamin Renkema   Greenville, SC18:49:57 193086  Z-Motion
4123.25Robert Foshag   Monroe, MI18:49:58 88653  lathrup industries giant bicycles
5126.84Christopher Fisher   Leland Mi18:49:57 11699  Priority Health Cycling Team
6130.43Jason Lowetz   Williamsburg, MI18:49:58 129069  Einstein Racing
7134.02Jason Swiatlowski   Ada, MI18:49:58 34815  39 Bissell/ABG
8137.61Gregory Christian   St Simons, GA18:49:58 186412  14 Panther pb Competitive Cyclist
9141.20Jonathan Card   Sylvania, OH18:49:58 6078  10 TEAM CARD
10144.79Mac Brennan   East Jordan, MI18:49:58 243416  22 Panther p/b Competitive Cyclist
11148.38Adam York   Okemos Mi18:49:58 210584  13 MCG p/b Trails-Edge.com
12Sven Baumann   18:49:59  25 BMC actionline
13155.56Alan Antonuk   Santa Monica, CA18:50:00 200093  Cleveland Clinic Sports Heath/RGF pb Felt Bicycles
14159.15Ryan Cross   Holland , MI18:50:01 193829  41 Panther pb Competitive Cyclist
15162.74Tim Finkel (1 - Cat2)   Royal Oak, MI18:50:03 216738  20 WOLVERINE/ACFSTORESCOM
16166.33Christopher Lynch (2 - Cat2)   Milwaukee, WI18:50:03 278183  17 Team GEARGRINDER
17169.92Tom Burke   Grand Rapids, MI18:50:04 179205  23 lathrup industries/giant bicycles
18173.51Rudyard Peterson   Kalamazoo, MI18:50:04 215610  35 Kinetic Systems
19177.10Brian Crosby (3 - Cat2)   Lansing, MI18:50:05 197944  Black Line Track Racing
20180.69Alex Vanias   Leroy, MI18:50:05 291766  28 Priority Health Cycling Team
21184.28Adam Kaye   Ann Arbor, MI18:50:05 290612  11 
22187.87Jason Young   Portage, MI18:50:08 159810  30 East Hills Velo
23191.46Robert Daksiewicz   Howell, MI18:50:11 47027  720 Lathrup Industries/Giant Bicycles
24195.05Ty Schmidt   Traverse City, MI18:50:17 196830  18 Einstein Racing
25198.64Andrew Florian   Kalamazoo, MI18:50:28 198114  PRIORITY HEALTH CYCLING TEAM
26202.23Collin Snyder   Plymouth, MI18:50:30 264396  24 MCG p/b Trails-Edge.com
27205.82Trevor Rolette   Tinley Park, IL18:51:14 226739  33 South Chicago Wheelmen
28209.41Nathaniel Williams   East Grand Rapids, MI18:51:15 220678  19 Bissell/ABG Cycling
29Peter Beels   18:51:26  21 Leadout/Chicago Drive Cycling
30216.59Cory Stange   Millington, MI18:50:04 260216  12 Bissell/ABG
31220.18Martin Vecchio (4 - Cat2)   Detroit, MI18:51:09 289623  29 MCG p/b Trails Edge
DNFRichard Breininger   Oak Park, IL 215726  38 Specialized
DNFZachary Maino   Jackson Mi 235419  27 Ventus Cycling Team
DNFBrian Adams   Novi, MI 80614  719 Lathrup Industries / Giant Bicycles
DNFBenjamin Whitehead   Belmont, MI 183938  16 Bissell Masters Elite

Men - Cat 5

 Place Points NameCity, StateTime USAC #BibTeam
1528.13John Leach   Traverse City, MI18:21:38 337826  502 Hagerty Cycling
2Tim Bottrell   18:21:39  624 Team Huma
3533.07Peter Gast   Grosse Pointe Woods, MI18:21:39 296675  527 Greyson Cyclewerks
4535.54Jimmy Argyle   Traverse City, MI18:21:40 355864  584 
5538.01Mike VandenBerg   Grand Rapids, MI18:21:41 356422  516 Leadout Racing
6540.48Clayton Monahan   Birmingham, MI18:21:41 310102  529 
7542.95Steven Sagers   Schoolcraft, MI18:21:41 353296  900 Ventus cycling team
8545.42Joe Greer   Grayling18:21:41 254175  617 
9547.89Nikita Bondar   East Lansing, MI18:22:28 349300  531 Team TOMS
10michael senters   18:22:28  606 lisa luke gabby
11552.83Richard Bielewicz   Traverse City, MI18:22:31 339596  587 
12555.30Hans Juntunen   Kalamazoo, MI18:22:47 350168  520 Priority Health
13Glen Ruczynski   18:23:23  510 
14Jack Hamilton   18:26:06  530 
15Zachary Lysdahl   18:21:53  519 
16Robert Hall   18:21:53  614 City Bike
17Dan Monahan   18:21:56  528 
18570.12Jon Haines   Shelby Township, MI18:22:01 348608  611 
19Eric Baetens   18:22:02  592 
20craig dittmer   18:22:04  585 RACING GREYHOUNDS
21577.53James Hartwell   Saint Joseph, MI18:22:04 337494  601 Leadout
22580.00Matt Cook   Eastgrand Rapids, MI18:22:43 311298  517 Foster Swift / Grand Rapids Bicycle Company
23Scott Erickson   18:22:44  514 Hansen Racing
24Jeff Libby   18:22:44  593 
25Ron Uprichard   18:22:45  622 
26589.88tom dimuro   Algeralger, MI 356690  613 Team ATP-Saginaw
DNFkevin rose   Milford, MI 342266  525 Hometown Cycles/RJR
DNFmichael bucholtz   Chicago, IL 351568  504 Beverly Bike-Vee Pak
DNFAlex Ray   Bloomfield Hills, MI 310912  511 

Men - Cat 4

 Place Points NameCity, StateTime USAC #BibTeam
1315.61Justin Sprung   Portage18:30:38 274267  437 CMS Race Team
2325.77Aaron McCready   Novi, MI18:30:38 294442  405 RACING GREYHOUNDS
3335.93Steven Weckle   Midland, MI18:30:38 227728  435 Tri City Cyclists
4346.09Jamie Sanchez   Chicago, IL18:30:39 306387  411 Half Acre Cycling
5356.25John Gracely   Ann Arbor, MI18:30:39 309574  433 University of Michigan
6366.41Derek Delzer   Troy, MI18:30:39 317058  413 
7376.57James LeBlanc   Royal Oak, MI18:30:40 227126  415 Unaffiliated
8386.73Colin Vis   East Grand Rapids Mi18:30:40 204068  455 East Hills Velo
9396.89Jeff Chapin   Verona, WI18:30:40 311570  424 Team Giant - Michigan
10407.05Jacob Ellis   Traverse City, MI18:30:40 316946  400 Hagerty Cycling
11417.21Derrick OBrien   Jackson, MI18:30:40 315388  429 Team Active Racing
12427.37Alex Corrion   East Lansing , MI18:30:40 314360  458 Tri-City Cyclists
13437.53Isaiah Jay   Chicago, IL18:30:41 288101  434 Half Acre Cycling
14447.69Aaron VandeWege   Rockford, MI18:30:41 334316  417 Speed Merchants
15457.85Garth Jackson   Minden, NV18:30:41 247512  419 super duty
16468.01Trey Cassidy   Grosse Pointe Woods, MI18:30:42 204763  650 
17478.17Mike Okma   Traverse City, MI18:30:43 166121  410 Hagerty
18488.33Ryan Hartwell   Saint Joseph, MI18:30:49 296639  426 Leadout
19498.49Nick Lekovish   San Diego, CA18:31:00 342874  409 MCG Trails-Edge
20508.65Don Kring   Grand Rapids, MI18:31:47 340150  404 
21518.81Hazen Sills   Holland, MI18:30:08 280598  808 Jade / Whisper
22528.97Ross Ratajczak   Chicago, IL18:30:24 288613  412 Half Acre Cycling
23539.13James Martinus   Hudsonville, MI18:31:00 235922  457 East Hills Velo/Ada Bike Shop
24549.29John Laverty   Bay City, MI18:31:07 349382  450 Tri-City Cyclist
25559.45Nick Mathis   Wyoming, MI18:31:23 170776  428 GRBC
26569.61Ken Misch   Carmel, IN18:31:45 251397  436 Flying Rhino Cycling
27579.77Jack Miner   West Bloomfield, MI 278177  453 Team Active Racing
28589.93Scott Baumann   Grand Rapids, MI 322512  401 Rapid Wheelmen
DNFMark Caffyn   Ortonville, MI 252670  443 MPI Mainstreet Kuhnhenn Racing
DNFJeff Plotzke   Novi, MI 323298  423 RACING GREYHOUNDS
DNFMatt George   Kalamazoo, MI 313434  285 priority health
DNFMark Varney   Canton, MI 348392  438 RACING GREYHOUNDS
DNFDavid Estefan   Hudsonville, MI 59981  721 Fusion IT
DNFTodd Simeone   Chicago, IL 303233  446 Half Acre Cycling
DNFRobert Shank   Livonia, MI 173365  448 AAVC

Men - Cat 3

 Place Points NameCity, StateTime USAC #BibTeam
1239.92Blaine Benson   Ann Arbor, MI18:36:27 268471  319 Black Line Track Team/IVBP
2247.29Benjamin Cox   Fenton, MI18:36:27 258444  320 Team Giant - MI
3254.66Jason Mulawa   Clinton Township, MI18:36:27 310681  334 Miller Energy p/b Grand Rapids Bicycle Company
4262.03Ryan Tervo   Chassell, MI18:36:28 292168  331 
5269.40Carl Flink   Nashville , TN18:36:28 122479  317 Steel City Endurance
6276.77Joshua Smith   Erie, CO18:36:28 215580  302 TEAM O2
7284.14Lewis Henrickson   Gowen, MI18:36:29 309627  325 Ventus Cycling Team
8291.51anthony prentice   Allendale 18:36:29 292144  327 priority health
9298.88Jared Rogers   Chicago, IL18:36:29 261146  318 xXx Racing - AthletiCo
10306.25Lucas Oostindie   Middleville, MI18:36:29 268132  308 East Hills Velo
11313.62Justin Perry   Grand Haven, MI18:36:29 295935  335 SCTNow.org/Faith Hospice
12320.99Evan Jahn   Chicago, IL18:36:29 297483  314 Rhythm Racing
13328.36Jason Whittaker   Traverse City, MI18:36:29 281144  315 Einstein Racing
14Scott Elgie   18:36:30  306 Algoma Bicycle Company
15343.10Benjamin Rollenhagen   East Lansing, MI18:36:30 240802  328 Tri City Cyclists
16350.47Christopher Vitton   Rockford, MI18:36:30 302801  329 Speed Merchants
17357.84Joseph Lekovish   Northville, MI18:36:30 166429  307 MCG/Trails-Edge
18365.21David Racine   Shorewood, WI18:36:30 99357  301 Hampshire Cycle Club
19372.58Trae Bott   Blanchard, MI18:36:33 273675  316 SC Racing
20379.95Dirk DeJonge   Hudsonville, MI18:36:33 189389  313 Whisper Jade
21387.32Brian Hofstra   Lake Ann, MI18:36:34 280648  310 Hagerty Racing
22394.69Brent Goetz   Toledo, OH18:36:35 336412  324 Maumee Valley Wheelmen
23402.06John Wolters   Seattle, WA18:34:52 287592  312 Rhythm Racing
24409.43David Boboltz   Kalamazoo, MI18:37:57 120317  305 Eash Hills Velo
DNFDouglas McKibbon   Farmington Hills, MI 276085  309 Wolverine/American C&F
DNFDaniel Lowetz   New York, NY 239595  340 Einstein Racing
DNFBrian Bangma   Ada, MI 175053  339 Miller Energy Racing
DNFGregory Brown   Traversecity, MI 279437  336 PRIORITY HEALTH CYCLING TEAM
DNFCameron Marshall   Ann Arbor, MI 281227  321 Team Giant-MI
DNFBryan Kuyper   Grandrapids, MI 310893  326 Leadout Racing
DNFAndy Fedewa   Clarkston, MI 262182  323 Flying Rhinos
DNFEvan Boese   Richland, MI 300804  322 Ventus Cycling

Men - Master - 35-44

 Place Points NameCity, StateTime USAC #BibTeam
1152.73Robert Daksiewicz   Howell, MI18:36:06 47027  720 Lathrup Industries/Giant Bicycles
2160.98Jason Young   Portage, MI18:36:06 159810  30 East Hills Velo
3169.23Steven Mlujeak   Pembroke Pines, FL18:36:09 24653  704 Bike America
4177.48Brian Adams   Novi, MI18:36:12 80614  719 Lathrup Industries / Giant Bicycles
5185.73Chad Everts   Hudsonville, MI18:36:12 220011  717 Leadout Racing/Chicago Dr. Cycling & Fitness
6193.98Cary Roseth   East Lansing, MI18:36:12 97564  703 Team TOMS p/b Kind Human Sports
7202.23Jason Zimmerman   Latrobe, PA18:36:13 69951  908 Freddie Fu Cycling Team
8210.48Alan Zoltowski   Canton, MI18:36:13 66373  834 Team Giant - Michigan
9218.73John Lobbezoo   Jenison, MI18:36:14 63163  723 Leadout Racing
10226.98Eric Forrester   Rockford, MI18:36:14 149439  726 Bissell/ABG Cycling Club
11235.23Branden Lyon   Grand Rapids, MI18:36:14 53879  730 East Hills Velo
12243.48Scott Kroske   Birmingham, MI18:36:15 225584  840 Wolverine ACF.com
13251.73Houston Peterson (1 - Cat1)   Kalamazoo, MI18:36:16 48753  832 Kinetic Systems
14259.98Mark Wolowiec   Davisburg, MI18:36:16 41215  734 Flying Rhino Cycling Club
15268.23Paul Havens   Jenison, MI18:36:17 279713  728 Leadout Racing
16276.48Jason Hess   Commerce Township, MI18:36:17 48059  597 Unattached
17284.73Kenneth Vernier   Sterling Heights, MI18:36:18 201821  715 Essex Brass
18292.98Andrew Weir (1 - Cat2)   South Ogden, UT18:36:18 169810  706 Two Wheel Tango
19301.23Dean Cohen (1 - Cat3)   Grand Rapids, MI18:36:18 47204  829 West Michigan Coast Riders
20309.48Christopher Guntern (2 - Cat3)   Alto, MI18:36:20 300444  724 PRIORITY HEALTH CYCLING TEAM
21317.73Tim Barrons (3 - Cat3)   Traverse City, MI18:36:21 154530  700 Hagerty Cycling
22325.98Steve Andriese   Traverse City, MI18:36:21 209048  818 Hagerty Racing
23334.23Paul DesRosiers (4 - Cat3)   Boulder, CO18:36:21 9318  701 Rally Sport
24342.48James Bruce   Novi, MI18:36:25 46453  822 Lathrup Industries/Giant Bicycles
25350.73Daniel Klein (2 - Cat2)   Berkley, MI18:36:33 19336  826 LATHRUP/GIANT
26358.98David Estefan   Hudsonville, MI18:36:34 59981  721 Fusion IT
27367.23Jimmy McMurray   Grand Rapids, MI18:36:39 166307  712 EAST HILLS VELO/ADA BIKE
28375.48David Baar   Ada, MI18:36:39 125256  705 EAST HILLS VELO / ADA BIKE TEAM
29383.73Thomas Novitsky   Northville, MI 227191  709 NA
DNFKeith Grand (Cat3)   Harper Woods, MI 263250  710 Team O2
DNFGary Oliveira   Lake Orion, MI 52709  804 Flying Rhino Cycling Club
DNFTom Linck   Ada, MI 225784  729 Priority Health
DNFHal BeVier   Traverse City, MI 3599  816 Hagerty
DNFChris Johnson   Bloomfield Hills, MI 17905  830 Flying Rhino Cycling Club

Men - Master - 45-54

 Place Points NameCity, StateTime USAC #BibTeam
1178.91Houston Peterson (1 - Cat1)   Kalamazoo, MI18:32:40 48753  832 Kinetic Systems
2192.25James Bruce   Novi, MI18:32:40 46453  822 Lathrup Industries/Giant Bicycles
3205.59Hal BeVier   Traverse City, MI18:32:40 3599  816 Hagerty
4218.93Alan Zoltowski   Canton, MI18:32:40 66373  834 Team Giant - Michigan
5232.27Mike Jones   Kalamazoo, MI18:32:41 18223  802 VENTUS CYCLING TEAM
6245.61Steve Andriese   Traverse City, MI18:32:41 209048  818 Hagerty Racing
7258.95Jimmy McMurray   Grand Rapids, MI18:32:42 166307  712 EAST HILLS VELO/ADA BIKE
8272.29David Hietikko   Ada, MI18:32:42 16121  807 West Mich Coast Riders
9285.63Mark Cahn   W Bloomfield, MI18:32:42 45148  809 Cadieux / Team O2
10298.97Scott Kroske   Birmingham, MI18:32:42 225584  840 Wolverine ACF.com
11312.31Francis Bunn (1 - Cat3)   East Grand Rapids, MI18:32:43 221576  823 Bissell / ABG
12325.65Chris Johnson   Bloomfield Hills, MI18:32:43 17905  830 Flying Rhino Cycling Club
13338.99Daniel Hofstra   Traverse City, MI18:32:44 119054  801 Hagerty
14352.33Daniel Klein (1 - Cat2)   Berkley, MI18:32:48 19336  826 LATHRUP/GIANT
15365.67Norman Licht   Traverse City, MI18:32:51 233939  812 hagerty racing
16379.01Mark Freed (2 - Cat3)   Mount Pleasant, MI18:33:57 221861  806 RacerHeads Sports and Leisure
17392.35Mark Warner   Lansing, MI18:33:58 299805  811 WMCR
18405.69Eric Phreed   Lansing, MI18:33:58 161040  827 wmc riders
19419.03Dean Cohen (3 - Cat3)   Grand Rapids, MI18:33:59 47204  829 West Michigan Coast Riders
20432.37Gary Oliveira   Lake Orion, MI18:32:49 52709  804 Flying Rhino Cycling Club
21445.71Michael Thomas (2 - Cat2)   Knoxville, TN18:32:58 318238  805 McDonalds Racing
22459.05Christopher Bloch   Grand Rapids, MI18:33:19 222811  813 Bissell/ABG Cycling Club
23472.39David Bartol (1 - Cat4)   Grand Marais, MN 192344  407 MBRC/Flanders
24485.73Thomas Dell   East China, MI 277474  800 Team O2/Cadiuex Bicycle Club
25499.07Nigel Mullis   Rochester, MI 333396  815 Cadieux O2
DNFHazen Sills (Cat4)   Holland, MI 280598  808 Jade / Whisper
DNFjohn meachum (Cat3)   Ada, MI 299075  831 Priority Health Cycling Team
DNFJames Ignash   Clawson, MI 276023  817 Team O2

Men - Master - 55-99

 Place Points NameCity, StateTime USAC #BibTeam
1318.41Fredrick Anderson   Okemos, MI18:32:42 1625  863 West Mich Coast Riders
2342.36David Burke   Tucson, AZ18:32:45 244600  850 Tri-City Cyclists
3366.31Mark Wolowiec   Davisburg, MI18:32:46 41215  860 Flying Rhino Cycling Club
4390.26Richard Brink   Cleveland, OH18:32:48 4859  864 Cleveland Clinic Sports Health
5414.21Michael Krywanski   Rockford, MI18:33:58 77307  854 PRIORITY HEALTH CYCLING TEAM
6438.16Loren Simons   St Johns, MI18:33:58 47936  859 Priority Health
7462.11Lars Welton   Traverse City, MI18:33:51 37712  856 Hagerty Cycling

Men - Junior - 10-12

 Place Points NameCity, StateTime USAC #BibTeam
1Nick McKey   18:20:05  251 west mich coast riders
2565.00Garrett Zueger   Marquette, MI18:20:18 349858  250 KMK
3Frankie Andreu   18:22:38  253 
DQGarrett Jenema     255 Hagerty Racing
DQGavin Ryba     252 Hagerty Cycling

Men - Junior - 13-14

 Place Points NameCity, StateTime USAC #BibTeam
1527.74Logan Zueger   Marquette, MI18:16:52 312890  261 KMK
2539.33Spencer Virtue   Traverse, MI18:18:01 309507  267 Wolverine ACF.com
3550.92Nathan Perkins   Fremont, MI18:16:53 306240  264 West Michigan Coast Riders
4562.51Owen Whalen   Ada, MI18:17:00 348150  260 Rapid Wheelmen
5574.10IAN DURAND   Interlochen, MI18:17:03 315750  262 hagerty

Men - Junior - 15-16

 Place Points NameCity, StateTime USAC #BibTeam
1321.76Rudyard Peterson   Kalamazoo, MI18:17:42 215610  35 Kinetic Systems
2351.76Trevor Rolette   Tinley Park, IL18:17:42 226739  33 South Chicago Wheelmen
3381.76brendan mulder   Grand Rapids, MI18:17:42 346418  288 W.M.C.R
4411.76Dylan Gonda   Portage, MI18:17:45 315864  271 CMS Race Team
5441.76Austin Schouman   Grand Haven, MI18:17:45 311997  275 west michigan coast riders
6471.76Martin Zanotti   Holland, MI18:18:14 305754  270 Rapid Wheelmen
7501.76David Hartwell   Saint Joseph, MI18:18:50 352776  274 Unattached
8531.76Sean Brownell   Traverse City, MI18:20:10 311085  276 Hagerty Cycling Team

Women - Pro 1/2

 Place Points NameCity, StateTime USAC #BibTeam
1240.71Amy Stauffer   Lowell, MI18:36:19 151668  110 Priority Health
2254.08Lauri Brockmiller   Traverse City, MI18:36:21 275925  101 Hagerty Racing
3267.45Johanna Schmidt (1 - Cat2)   Traverse City, MI18:36:23 236546  106 Einstein Racing
4280.82Meghan Lapeta   Chicago, IL18:36:24 204804  104 Smart Cycling
5294.19amelia moore (2 - Cat2)   Chicago, IL18:36:37 286576  105 XXX Racing-AthLetico

Women - Cat 4

 Place Points NameCity, StateTime USAC #BibTeam
1459.31Danielle Mullis   Rochester, MI18:22:11 296790  211 Wolverine Sports Club/ACF Stores.com
2475.96Melissa Ryba   Traverse City, MI18:22:11 342048  655 Hagerty Cycling
3492.61Ellie Burke   Grand Rapids, MI18:22:11 342636  661 RWT
4509.26Heather Kubiak   Jenison, MI18:22:11 290301  651 Real Women Tri
5525.91Lori Hotchkin   Hudsonville Mi18:22:12 333304  664 Real Women Tri
6542.56Sandie Domagalski   Clarkston, MI18:22:27 262343  657 FRCC
7Kathy Roche-Wallace   18:23:32  666 Team Active Racing

Women - Cat 3

 Place Points NameCity, StateTime USAC #BibTeam
1292.42Katheryn Everts   Hudsonville, MI18:36:21 307335  154 Real Women Tri/Chicago Dr. Cycling & Fitness
2312.71Zoe Reeves   Grand Rapids, MI18:36:21 295290  153 Priority Health
3333.00Amanda Ryan   Farmington Hills, MI18:36:22 286220  151 Team Giant of Michigan
4353.29Amanda Schaap   Jenison, MI18:36:22 342042  160 Miller Energy p/b GRBC
5373.58Tiffany Bangma   Ada, MI18:36:24 289695  158 Miller Energy pb GR Bicycle Co.
6393.87Cady Chintis   Seattle, WA18:36:24 309452  152 Alberto's
7414.16Laura Melendez   Grand Rapids, MI18:36:25 225973  165 Priority Health
8434.45Kimberly Thomas   Belmont, MI18:36:24 300926  162 Fusion Cycling team
9454.74bridgett widrig   Interlochen, MI18:36:28 306302  161 Hagerty
10475.03Susan Shaw   Fenton, MI18:36:53 246829  166 Fusion IT
11495.32barb beauregard   Traverse City, MI18:37:35 312276  159 Hagerty Cycling
12515.61Amy Jenema   Williamsburg, MI18:37:35 278968  109 Hagerty Cycling
13535.90Kristin Henderson   Grand Rapids, MI 317492  155 Miller Energy Racing p/b GRBC
14556.19Mary Dekker   Grand Rapids, MI 104578  111 Fusion Cycling Team

Women - Junior - 10-12

 Place Points NameCity, StateTime USAC #BibTeam
1Chloe Reeves   Grandrapids, MI18:20:39 310232  200 Priority Health
2Claire Reeves   Grand Rapids, MI18:20:34 350064  201 Priority Health

Women - Junior - 13-14

 Place Points NameCity, StateTime USAC #BibTeam
1Katie Hamel   Comstock Park, MI18:18:01 294976  210 Rapid Wheelmen
2Emma Fickel   Rochester Hills, MI18:18:01 324218  212 Track Teams by WaHu

Women - Junior - 15-16

 Place Points NameCity, StateTime USAC #BibTeam
1Sarah Hartwell   Saint Joseph, MI18:29:23 352774  220 Unattached

Report missing or incorrect license numbers

Volkswagen
Sierra NevadaBonk BreakerSpyUSACDFShimano
UCI USA Cycling is the official governing body for all disciplines of competitive cycling in the United States. The 501c3, membership-based organization aims both to achieve sustained success in international cycling competition and to grow competitive cycling in America while delivering an exceptional customer experience.
View Children's Online Privacy Protection Policy
US Olympic Committee